(4660) Nereus
ephemeris date magn radius delta ra dec elong phase
Today24 Jun 202621.22.010 AU1.052 AU20h07m-21°30'152.7°13.4°
(4660) Nereus - 2026-06-24
astro.vanbuitenen.nl


 
-1 year
-1 month
-1 day
Now
+1 day
+1 month
+1 year

The interactive orbit chart above shows the body's path through the solar system and its position at the given date. Green and blue lines are shown perpendicular to the ecliptic plane: Green if the path is above the ecliptic plane, blue if it is below. (Left-click and drag to rotate the view; Right-click and drag to move the view; Use scroll wheel to zoom in our out.)

The orbital elements of Nereus are:

            e (Eccentricity)                : 0.3587436
            a (Semimajor axis)              : 1.4851126
            i (Inclination)                 : 1.45354
            Ω (Longitude of ascending node) : 313.10555
            ω (Argument of perihelion)      : 159.55682
            M (Mean anomaly)                : 158.72513
            Epoch                           : 2026 Jun 09

            L (Longitude of perihelion)     : 292.66840
            B (Latitude of perihelion)      : 0.50764
            P (Orbital period in years)     : 1.81            
        

The light curve chart below shows the estimated development of the minor planet's magnitude.


The all-sky chart below shows the path of the minor planet over the same period as the light curve. The current position is marked yellow.





The following chart shows the path of the minor planet in the next few days. The field of view is optimized for (~10x50) binoculars and finderscopes.




Ephemerides:
Date       Time       RA (2000)    DEC (2000)    delta   radius  elong  phase   PA    magn
2026-06-24 00:00 UT   20 07 24.0   -21 30 51     1.052    2.010  152.7   13.4   260   21.2 
2026-06-24 16:53 UT   20 06 28.1   -21 33 23     1.049    2.011  153.6   13.0   261   21.1 
2026-06-25 00:00 UT   20 06 04.2   -21 34 28     1.047    2.011  154.0   12.8   261   21.1 
2026-06-26 00:00 UT   20 04 42.2   -21 38 07     1.043    2.012  155.3   12.2   261   21.1 
2026-06-27 00:00 UT   20 03 17.9   -21 41 49     1.039    2.012  156.6   11.6   261   21.1 
2026-06-28 00:00 UT   20 01 51.5   -21 45 33     1.034    2.013  157.8   11.0   261   21.0 
2026-06-29 00:00 UT   20 00 23.0   -21 49 18     1.030    2.013  159.1   10.4   262   21.0 
2026-06-30 00:00 UT   19 58 52.5   -21 53 05     1.027    2.014  160.4    9.7   262   21.0 
2026-07-01 00:00 UT   19 57 20.1   -21 56 52     1.023    2.014  161.8    9.1   262   20.9 
2026-07-02 00:00 UT   19 55 45.8   -22 00 40     1.020    2.015  163.1    8.4   263   20.9 
2026-07-03 00:00 UT   19 54 09.9   -22 04 27     1.017    2.015  164.4    7.8   263   20.9 
2026-07-04 00:00 UT   19 52 32.4   -22 08 14     1.014    2.015  165.7    7.1   264   20.8 
2026-07-05 00:00 UT   19 50 53.4   -22 11 60     1.012    2.016  167.1    6.5   265   20.8 
2026-07-06 00:00 UT   19 49 12.9   -22 15 44     1.010    2.016  168.4    5.8   265   20.8 
2026-07-07 00:00 UT   19 47 31.3   -22 19 25     1.008    2.016  169.8    5.1   266   20.7 
2026-07-08 00:00 UT   19 45 48.5   -22 23 05     1.006    2.017  171.1    4.5   267   20.7 
2026-07-09 00:00 UT   19 44 04.6   -22 26 41     1.005    2.017  172.5    3.8   269   20.6 
2026-07-10 00:00 UT   19 42 19.9   -22 30 14     1.003    2.017  173.8    3.1   271   20.6 
2026-07-11 00:00 UT   19 40 34.5   -22 33 44     1.002    2.017  175.1    2.5   274   20.5 
2026-07-12 00:00 UT   19 38 48.5   -22 37 09     1.002    2.017  176.5    1.8   279   20.5 
2026-07-13 00:00 UT   19 37 02.0   -22 40 29     1.001    2.018  177.7    1.2   289   20.4 
2026-07-14 00:00 UT   19 35 15.3   -22 43 45     1.001    2.018  178.7    0.6   320   20.4 
2026-07-15 00:00 UT   19 33 28.4   -22 46 55     1.001    2.018  178.7    0.7    25   20.4 
2026-07-16 00:00 UT   19 31 41.5   -22 49 60     1.002    2.018  177.7    1.2    54   20.4 


    Terminology:
            
    delta:  distance between minor planet and earth in AU
    radius: distance between minor planet and sun in AU
    magn:   magnitude (brightness) estimate    
    ra:     right ascension in hours (24h = 360deg)
    dec:    declination in degrees
    elong:  elongation in degrees (angle sun-earth-minor planet)    
    phase:  phase angle in degrees (angle sun-minor planet-earth)        
    AU:     Astronomical Unit (mean distance between earth and sun: 149597870.7 km
    

Orbital elements provided by the MPC (Minor Planet Center).
Calculations by a modified version of AAPlus, a C# implementation of the AA+ project by PJ Naughter from the algorithms presented in the book "Astronomical Algorithms" by Jean Meeus.
NGC2000 dso catalog and star labels from VizieR as provided by the Strasbourg astronomical Data Center.
Tycho2 catalog from the ESO archive.